Flag for U.S.A. Weather past 2 weeks in Santa Barbara, California, U.S.A.

Now
64 °F

Passing clouds.


Feels Like: 64 °F
Forecast: 58 / 69 °F
Wind: 5 mph from West

Location: Santa Barbara Municipal Airport

Current Time: Aug 20, 2014 at 8:01:44 AM

Latest Report: Aug 20, 2014 at 7:00 AM


Visibility: 10 mi

Pressure: 29.91 "Hg

Humidity: 78%

Dew point: 57 °F

Location of Santa BarbaraLocation

Historic Weather in Santa Barbara — Graph

°F

Santa Barbara temperature yesterday

Maximum temperature yesterday: 76 °F (at 3:53 PM)
Minimum temperature yesterday: 62 °F (at 2:53 AM)
Average temperature yesterday: 67 °F

Past Weeks' High & Low Weather Summary

 TemperatureHumidityPressure
High79 °F (Aug 17, 1:53 PM)97% (Aug 15, 1:53 AM)30.07 "Hg (Aug 15, 1:53 AM)
Low58 °F (Aug 11, 4:53 AM)48% (Aug 17, 1:53 PM)29.77 "Hg (Aug 18, 6:53 PM)
Average66 °F78%29.94 "Hg
* Reported Aug 5 7:53 AM — Aug 20 7:00 AM, Santa Barbara, Weather by CustomWeather, © 2014

Note: Actual official high and low records may vary slightly from our data, if they occured in-between our weather recording intervals... More about our weather records

Advertising

Santa Barbara weather history for previous 24 hours

 ConditionsComfort  
Time TempWeatherWind HumidityBarometerVisibility
7:00 AM
Aug 20
64 °FPassing clouds.5 mph78%29.91 "Hg10 mi
5:53 AM65 °FOvercast.3 mph81%29.90 "Hg10 mi
4:53 AM65 °FOvercast.5 mph81%29.89 "Hg10 mi
2:53 AM65 °FOvercast.5 mph87%29.88 "Hg10 mi
1:53 AM65 °FOvercast.6 mph85%29.87 "Hg10 mi
12:53 AM65 °FOvercast.6 mph87%29.88 "Hg10 mi
11:53 PM
Aug 19
64 °FPassing clouds.5 mph87%29.87 "Hg10 mi
10:53 PM64 °FClear.3 mph84%29.86 "Hg10 mi
9:53 PM65 °FClear.No wind81%29.87 "Hg10 mi
8:53 PM65 °FClear.5 mph81%29.85 "Hg10 mi
7:53 PM67 °FSunny.6 mph76%29.84 "Hg10 mi
6:53 PM71 °FSunny.6 mph66%29.83 "Hg10 mi
5:53 PM72 °FSunny.8 mph64%29.83 "Hg10 mi
4:53 PM74 °FSunny.7 mph62%29.83 "Hg10 mi
3:53 PM76 °FSunny.7 mph58%29.85 "Hg10 mi
2:53 PM74 °FScattered clouds.8 mph62%29.86 "Hg10 mi
1:53 PM74 °FOvercast.6 mph62%29.88 "Hg10 mi
1:00 PM72 °FOvercast.5 mph69%29.90 "Hg10 mi
11:53 AM71 °FOvercast.3 mph71%29.90 "Hg10 mi
10:53 AM69 °FOvercast.7 mph76%29.90 "Hg10 mi
9:53 AM70 °FOvercast.6 mph73%29.89 "Hg10 mi
8:53 AM68 °FOvercast.No wind78%29.88 "Hg10 mi
Weather by CustomWeather, © 2014

See weather overviewHow to use our weather pages